Lid_Strength_Index
13 15 14 13 12 13 13 14 14 12 10 11 12 11 10 9 9 9 9 8 8 8 7 7 6 4 4 3 3 3 3 3 3 3 3 3 3 3 2 2 1 1 1 1
13 16 13 11 12 12 12 14 14 11 10 11 11 12 10 10 9 9 9 8 8 8 7 6 6 5 4 3 3 3 3 3 3 3 3 3 3 2 2 2 2 1 1 1
15 14 11 11 12 13 13 13 13 13 11 11 12 13 12 10 9 9 8 8 8 8 7 7 6 5 4 4 4 3 3 3 3 3 3 3 3 3 3 2 2 1 1 1
14 11 13 13 13 12 15 11 11 11 13 16 11 17 13 11 10 9 9 9 9 7 6 6 5 5 4 4 3 3 3 3 3 3 3 3 3 3 3 2 2 2 1 1
15 13 14 14 13 10 13 10 11 12 14 14 13 15 14 12 11 10 9 8 9 7 6 6 5 4 4 3 3 3 3 3 3 3 3 3 3 3 2 3 2 2 2 1
13 10 12 12 11 10 10 12 13 14 14 18 14 14 15 13 11 10 9 8 7 7 7 6 5 4 4 4 4 3 3 4 3 3 3 3 3 3 3 3 3 3 2 1
14 13 12 11 13 12 13 16 20 20 20 19 13 14 14 11 10 9 9 9 7 7 7 6 5 5 5 4 4 3 3 4 3 3 3 3 3 3 3 3 3 3 2 2
16 17 13 11 13 14 14 15 19 21 20 17 13 16 13 9 8 8 8 8 7 7 7 6 6 5 5 4 4 3 4 4 4 3 3 3 3 3 3 2 2 3 2 2
15 15 10 10 11 11 15 15 13 16 15 17 15 13 10 9 9 9 9 8 8 8 7 6 6 5 5 4 4 4 4 4 4 3 3 3 2 2 2 2 2 2 2 1
14 16 11 10 10 10 13 11 16 17 19 20 16 15 14 11 10 9 9 9 8 7 7 6 6 5 5 4 4 4 4 4 3 3 3 3 2 2 1 1 2 2 2 2
13 15 14 11 13 14 15 15 16 15 16 18 19 16 11 10 10 9 9 9 8 7 7 6 6 5 5 4 4 4 4 4 3 3 3 2 2 2 2 2 2 2 2 2
12 15 16 14 12 9 11 13 14 16 18 16 16 16 10 10 10 9 9 8 8 7 6 6 6 6 5 4 4 4 4 4 3 3 3 2 2 2 2 2 2 2 2 1
12 16 18 16 14 12 12 13 13 14 15 16 17 16 10 9 9 9 9 8 7 7 6 6 7 6 5 5 4 4 4 4 3 3 3 3 2 2 2 2 2 2 2 2
10 15 16 17 16 13 14 12 12 14 17 15 14 14 10 9 9 9 9 8 8 7 6 6 6 7 5 4 4 4 4 4 4 3 3 3 3 2 2 2 2 2 1 2
12 18 15 14 13 12 13 12 12 13 13 15 13 13 11 10 10 9 8 8 7 7 6 6 6 7 6 5 4 3 4 4 4 3 3 3 2 3 2 2 2 2 1 1
12 18 16 17 12 12 13 12 12 12 12 13 12 13 10 9 8 8 8 7 7 7 6 6 6 6 6 5 4 3 4 4 3 2 3 3 3 3 2 2 2 2 2 1
13 16 18 19 15 14 15 13 13 12 11 12 13 11 10 9 8 8 8 7 7 6 6 6 5 6 5 4 3 4 4 4 4 2 3 2 2 3 2 2 3 3 3 3
14 15 17 19 16 19 13 10 10 12 11 11 11 10 9 8 7 7 6 6 6 6 5 5 5 5 5 4 4 3 4 4 4 3 2 2 2 3 3 3 3 4 4 4
12 14 18 19 18 15 13 11 12 13 13 10 10 9 9 8 7 8 6 5 6 5 5 5 5 5 5 4 4 3 4 4 4 3 2 3 2 2 3 3 3 3 4 4
12 13 15 17 19 19 14 10 8 9 15 9 9 9 9 8 10 8 6 5 6 5 5 5 5 5 5 4 4 3 4 4 4 3 2 2 3 3 3 3 3 3 5 4
15 15 17 18 19 15 10 10 9 15 15 10 9 8 8 9 7 6 6 5 5 5 5 5 5 5 5 4 4 4 4 4 3 3 2 2 3 3 2 3 3 3 4 5
15 16 17 16 18 19 10 10 13 12 10 9 10 9 8 7 7 7 5 5 6 6 6 5 5 5 5 4 4 4 4 3 3 3 2 2 3 2 3 3 3 3 4 5
15 12 14 14 14 9 9 9 8 9 10 10 10 9 9 7 7 8 6 6 5 5 5 5 5 6 5 4 4 4 3 3 3 3 3 3 3 3 3 3 3 3 4 4
11 10 12 12 10 10 9 8 8 9 10 9 9 9 9 7 6 8 6 6 5 5 5 5 6 6 6 5 4 4 4 3 3 3 4 3 3 3 3 2 2 3 3 3
11 10 12 12 10 10 9 9 9 10 9 10 9 9 6 6 6 8 7 6 5 5 5 5 6 6 6 5 4 4 4 3 4 4 4 3 3 2 3 3 2 2 2 3
10 12 12 13 10 11 11 9 9 10 10 10 10 9 5 5 6 7 7 5 5 5 5 5 5 6 5 5 4 5 5 4 4 4 4 3 3 2 2 2 4 10 7 8